Regional Weather Roundup
Issued by NWS

Home | Current Version | Previous Version | Graphics & Text | Print | Product List | Glossary On
Versions: 1 2 3 4 5 6 7 8 9 10 11 12 13 14 15 16 17 18 19 20 21 22 23 24 25 26 27 28 29 30 31 32 33 34 35 36 37 38 39 40 41 42 43 44 45 46 47 48 49 50
000
ASUS43 KMKX 282321
RWRWI

WISCONSIN REGIONAL WEATHER ROUNDUP
NATIONAL WEATHER SERVICE MILWAUKEE/SULLIVAN WI
600 PM CDT THU AUG 28 2014

NOTE: "FAIR" INDICATES FEW OR NO CLOUDS BELOW 12,000 FEET WITH NO
SIGNIFICANT WEATHER AND/OR OBSTRUCTIONS TO VISIBILITY.

WIZ001-002-006>008-014>016-023>028-290000-
NORTHWEST WISCONSIN

CITY           SKY/WX    TMP DP  RH WIND       PRES   REMARKS
SUPERIOR ARPT  CLOUDY    63  57  81 NE7       30.00F
ASHLAND        PTSUNNY   67  55  65 NE8       30.03F
HAYWARD        CLOUDY    70  59  68 S6        30.02F
SIREN          LGT RAIN  69  61  75 SE6       30.00S
RICE LAKE      CLOUDY    68  61  78 SE7       30.03S
LADYSMITH      CLOUDY    69  61  75 SE6       30.05S
EAU CLAIRE     LGT RAIN  68  65  90 E7        30.00F
MENOMONIE      DRIZZLE   67  65  92 E6        30.01R
NEW RICHMOND   CLOUDY    67  62  83 SE7       30.00R
OSCEOLA        CLOUDY    69  62  79 SE8       30.01S
$$

WIZ003>005-009-010-017-018-290000-
NORTH CENTRAL WISCONSIN

CITY           SKY/WX    TMP DP  RH WIND       PRES   REMARKS
WOODRUFF       CLOUDY    69  58  67 S6        30.06F
RHINELANDER    CLOUDY    67  57  70 S3        30.08F
EAGLE RIVER    CLOUDY    67  55  65 S3        30.06F
LAND O LAKES   PTSUNNY   68  54  60 S3        30.07F
PHILLIPS       CLOUDY    67  59  74 SE5       30.04S
TOMAHAWK       CLOUDY    66  59  77 CALM      30.06F
MEDFORD        RAIN      64  62  93 CALM      30.05S
MERRILL        DRIZZLE   67  62  83 SE6       30.06F
$$

WIZ029-030-035-036-043>047-290000-
CENTRAL WISCONSIN

CITY           SKY/WX    TMP DP  RH WIND       PRES   REMARKS
WAUSAU         LGT RAIN  66  62  87 E7        30.05F
MOSINEE        LGT RAIN  64  64 100 E6        30.07F
MARSHFIELD     LGT RAIN  68  64  87 E7        30.04F
STEVENS POINT  LGT RAIN  65  61  88 SE6       30.06S
WAUPACA        LGT RAIN  69  62  77 SE7       30.07R
WAUTOMA        RAIN      69  61  76 SE6       30.06S
WISC RAPIDS    LGT RAIN  68  64  87 SE5       30.06S
CAMP DOUGLAS   LGT RAIN  68  68 100 SE7       30.02F
$$

WIZ011>013-019>022-031-037>040-048>050-290000-
NORTHEAST WISCONSIN

CITY           SKY/WX    TMP DP  RH WIND       PRES   REMARKS
ANTIGO         CLOUDY    65  60  82 S6        30.08F
STURGEON BAY   CLOUDY    63  54  72 SE6       30.10F
GREEN BAY      CLOUDY    66  56  70 SE8       30.08F
MANITOWOC      CLOUDY    65  55  70 SE8       30.09F
APPLETON       CLOUDY    66  55  68 SE13      30.09S
CLINTONVILLE   CLOUDY    68  59  73 SE7       30.07S
OSHKOSH        LGT RAIN  67  57  70 S10       30.08R
$$

WIZ032>034-041-042-053>061-290000-
SOUTHWEST WISCONSIN

CITY           SKY/WX    TMP DP  RH WIND       PRES   REMARKS
LA CROSSE      HVY RAIN  68  65  90 SE5       29.99S FOG
SPARTA         DRIZZLE   67  65  91 E6        30.02S
VIROQUA        CLOUDY    66  66 100 E7        30.02S
BOSCOBEL       CLOUDY    74  63  68 SE6       30.00F
PRAIRIE DU CHI CLOUDY    72  61  68 E7        29.98F
PLATTEVILLE    FAIR      73  64  73 SE14      30.02F
$$

WIZ056-057-062-063-064-067-068-290000-
SOUTH CENTRAL WISCONSIN

CITY           SKY/WX    TMP DP  RH WIND       PRES   REMARKS
BARABOO/DELLS  CLOUDY    70  60  69 E7        30.04S
LONE ROCK      PTSUNNY   76  63  64 E8        30.02R
WATERTOWN      CLOUDY    67  55  66 E9        30.06F
MADISON        CLOUDY    71  57  61 SE14      30.05S
MIDDLETON      MOCLDY    72  58  59 SE13      30.05S
MONROE         CLOUDY    70  61  73 E7        30.05S
JANESVILLE     MOSUNNY   72  55  56 E9        30.05F
$$

WIZ051-052-058>065-066-070>072-290000-
SOUTHEAST WISCONSIN

CITY           SKY/WX    TMP DP  RH WIND       PRES   REMARKS
MILWAUKEE      PTSUNNY   66  56  70 E8        30.08F
WAUKESHA       CLOUDY    66  52  59 E7        30.10S
MILWAUKEE/TIMM SUNNY     66  50  55 E3        30.10S
RACINE         PTSUNNY   68  57  68 E8        30.10S
BURLINGTON     PTSUNNY   65  56  70 E8        30.08S
KENOSHA        PTSUNNY   67  58  72 E8        30.09S
FOND DU LAC    CLOUDY    66  54  65 SE14      30.09R
SHEBOYGAN      CLOUDY    65  53  65 SE3       30.09F
WEST BEND      CLOUDY    64  52  63 E5        30.09S
JUNEAU         CLOUDY    65  55  69 E9        30.09S
$$

LSZ147-162-290000-
LAKE SUPERIOR

STATION/POSITION TIME  TEMP    WIND        PRES    WAVE
                       AIR SEA DIR/SP/G            HT/PER
                 (UTC) (F)     (DEG/KT/KT) (MB)    (FT/S)
W MID LAKE BUOY  2250   61 59   70/  8/  8 1016.9F   0
DEVILS ISLAND    2300   62      90/ 10/ 11 1016.6F
PORT WING        2200   65      30/ 11/ 13 1016.6
SAXON HARBOR     2200   66      50/ 11/ 13 1016.9F
$$

LMZ867-665-643>646-290000-
LAKE MICHIGAN

STATION/POSITION TIME  TEMP    WIND        PRES    WAVE
                       AIR SEA DIR/SP/G            HT/PER
                 (UTC) (F)     (DEG/KT/KT) (MB)    (FT/S)
N MID LAKE BUOY  2250   63 66  120/  6/  6 1019.9F   0
NORTHPORT PIER   2200   64     140/ 10/ 12 1019.6S
SISTER BAY       2211   66     180/ 10/ 13   N/A
KEWAUNEE LAKESHO 2300   65     160/  7/  8 1018.2F
SHEBOYGAN LAKESH 2300   65 70  150/  6/  6 1019.1F
ATWATER BUOY     2300   68     100/  6/ 10 1019.7F
MILWAUKEE LAKESH 2300   67      70/  7/  8   N/A
S MID LAKE BUOY  2250   69 69   60/ 10/ 12 1018.4F
KENOSHA   LAKESH 2300   68      90/  8/  9 1018.3S
$$

TC  - TEMPERATURE IN CELSIUS
VSB - VISIBILITY IN STATUTE MILES
WCI - WIND CHILL INDEX
HX  - HEAT INDEX




USA.gov is the U.S. government's official web portal to all federal, state and local government web resources and services.